Regional Weather Roundup
Issued by NWS

Home | Current Version | Previous Version | Graphics & Text | Print | Product List | Glossary On
Versions: 1 2 3 4 5 6 7 8 9 10 11 12 13 14 15 16 17 18 19 20 21 22 23 24 25 26 27 28 29 30 31 32 33 34 35 36 37 38 39 40 41 42 43 44 45 46 47 48 49 50
000
ASUS45 KTFX 231310
RWRMT
MONTANA REGIONAL WEATHER ROUNDUP
NATIONAL WEATHER SERVICE GREAT FALLS MT
700 AM MDT THU MAR 23 2017

NOTE: "FAIR" INDICATES FEW OR NO CLOUDS BELOW 12000 FEET WITH NO
SIGNIFICANT WEATHER AND/OR OBSTRUCTIONS TO VISIBILITY.

MTZ001>007-043-231400-
WEST OF THE DIVIDE

CITY           SKY/WX    TMP DP  RH WIND       PRES   REMARKS
KALISPELL      PTCLDY    36  33  89 SE7       29.92R WCI  30
MISSOULA       PTCLDY    37  35  92 W6        29.97R
BUTTE          MOCLDY    32  27  81 NW6       29.90S WCI  26
MULLAN PASS    SNOW      26  25  96 VRB3      29.91S VSB 1/4
ANACONDA         N/A     34  28  80 W3        29.93R
DEER LODGE       N/A     37  28  70 E5        29.95R
EUREKA           N/A     41  34  75 SE5       29.91R
HAMILTON         N/A     39  28  65 CALM      29.96R
PLAINS           N/A     36  32  85 CALM      29.97S
RONAN            N/A     39  31  73 SW5       30.00R
$$

MTZ008-052>055-231400-
SOUTHWEST MONTANA

CITY           SKY/WX    TMP DP  RH WIND       PRES   REMARKS
BOZEMAN        CLOUDY    38  32  79 W6        29.86R
DILLON         CLOUDY    37  28  70 CALM      29.86S
W YELLOWSTONE  CLOUDY    21  21 100 CALM      29.82S
ENNIS          MOCLDY    25  23  93 NE5       29.89S
THREE FORKS      N/A     36  36 100 CALM      29.87R
TWIN BRIDGES     N/A     42  27  55 N12       29.86S
$$

MTZ009-010-012-014-046-048-049-054-231400-
EAST SLOPES AND CENTRAL MONTANA

CITY           SKY/WX    TMP DP  RH WIND       PRES   REMARKS
CUT BANK       PTCLDY    35  29  78 W18       29.81R WCI  24
GREAT FALLS    MOCLDY    34  27  75 SW13      29.83R WCI  25
MALMSTROM AFB  PTCLDY    37  29  71 SW14      29.83R WCI  29
HELENA         CLEAR     41  31  67 W14       29.89R
AUGUSTA          N/A     38  25  60 W16       29.83R WCI  29
BOWMANS CRNR     N/A     35  29  79 S13       29.84R WCI  26
CHOTEAU          N/A     37  27  65 W5G13     29.84R
CONRAD           N/A     37  31  79 SW6       29.85R
FAIRFIELD        N/A     35  26  68 SW7       29.82R WCI  30
POWER            N/A     28  24  87 SW6       29.82R WCI  21
RAYNESFORD       N/A     30  24  78 CALM      29.84R
$$

MTZ011-013-016-021-045-047-050-051-231400-
NORTH CENTRAL MONTANA

CITY           SKY/WX    TMP DP  RH WIND       PRES   REMARKS
HAVRE          CLEAR     31  28  89 W9        29.79R WCI  23
LEWISTOWN      CLOUDY    34  28  79 CALM      29.81R
N BAR RANCH    CLOUDY    41  27  56 W6G13     29.82R
CHINOOK          N/A     28  27  93 CALM      29.79R
DENTON         MOCLDY    33  26  76 S8        29.78S WCI  26
FORT BENTON      N/A     30  25  80 MISG      29.84R
GEYSER         MOCLDY    38  26  62 SW7       29.81R
GRASS RANGE    CLOUDY    42  29  58 SW13      29.76S
STANFORD         N/A     36  26  65 NW7       29.82R WCI  30
WINIFRED         N/A     36  28  71 W8        29.80R WCI  30
$$

MTZ017>020-022>027-061-062-231400-
NORTHEAST MONTANA

CITY           SKY/WX    TMP DP  RH WIND       PRES   REMARKS
GLASGOW        CLOUDY    34  31  88 W6        29.74R WCI  29
JORDAN           N/A     41  37  86 NW9       29.74R
SIDNEY         CLOUDY    34  33  96 CALM      29.74S
WOLF POINT     CLOUDY    33  31  92 CALM      29.74S
MALTA          CLEAR     28  27  93 W7        29.77R WCI  21
PLENTYWOOD       N/A     39  36  87 CALM      29.73S
POPLAR           N/A     34  30  86 CALM      29.74S
SCOBEY           N/A     29  22  75 CALM      29.73R
$$

MTZ028>42-056>058-231400-
SOUTHCENTRAL AND SOUTHEAST MONTANA

CITY           SKY/WX    TMP DP  RH WIND       PRES   REMARKS
BAKER          CLOUDY    46  33  60 SE3       29.72R
BILLINGS       CLOUDY    43  39  86 NW8       29.77R
LIVINGSTON     CLOUDY    41  32  70 W7        29.83R
MILES CITY     LGT RAIN  45  40  82 CALM      29.73R
BIG TIMBER     CLOUDY    43  34  70 W12       29.83R
EKALAKA          N/A     45  35  67 NE3       29.74R
FORSYTH          N/A     45  43  93 SW6       29.73S
HARLOWTON      CLOUDY    38  29  70 W15       29.80R WCI  29
LAUREL           N/A     44  34  68 CALM      29.78R
$$

REGIONAL REPORTS...DAKOTAS

CITY           SKY/WX    TMP DP  RH WIND       PRES   REMARKS
WILLISTON      CLOUDY    32  31  96 CALM      29.74F
MINOT          CLOUDY    35  29  78 S7        29.75S WCI  29
DICKINSON      CLOUDY    37  32  82 CALM      29.68F
BEACH            N/A    N/A N/A N/A MISG        N/A
TIOGA            N/A     30  30 100 N6        29.75F WCI  24
WATFORD CITY     N/A     32  32 100 CALM      29.73F
BISMARCK       LGT RAIN  34  31  88 E8        29.75F WCI  27
GRAND FORKS    CLOUDY    34  22  61 S14       29.87S WCI  25
FARGO          CLOUDY    37  26  64 S21G32    29.89S WCI  26
BUFFALO SD       N/A     43  39  86 N10       29.61F
RAPID CITY     CLOUDY    47  40  76 N13       29.66S
$$

REGIONAL REPORTS...WYOMING/IDAHO/WASHINGTON

CITY           SKY/WX    TMP DP  RH WIND       PRES   REMARKS
GILLETTE       MOCLDY    38  38 100 CALM      29.68S
SHERIDAN       LGT RAIN  45  42  89 W8        29.75R
BUFFALO WY     LGT RAIN  44  37  76 NW15G24   29.74R
CODY           CLOUDY    45  33  63 N12       29.76S
YELLOWSTONE LA   N/A     26  26 100 VRB3      29.81S
IDAHO FALLS    CLOUDY    34  33  96 W6        29.79S WCI  29
SALMON         CLOUDY    39  28  65 CALM      29.93R
BOISE          CLEAR     37  32  82 NW9       29.96R WCI  30
SPOKANE        CLOUDY    35  31  85 SW17      30.01R WCI  25
$$

REGIONAL REPORTS...ALBERTA

CITY           SKY/WX    TMP DP  RH WIND       PRES   REMARKS
EDMONTON       CLEAR     25  21  86 E7        29.73R WCI  17
CALGARY        PTCLDY    28  19  69 S8        29.69R WCI  20
MEDICINE HAT   MOCLDY    34  30  86 VRB2      29.74R
WATERTON GATE    N/A     36  28  75 S8          N/A  WCI  29
CARDSTON         N/A     34  27  75 SE2         N/A
MILK RIVER       N/A     34  28  80 W10         N/A  WCI  26
ONEFOUR          N/A     34  27  75 E2          N/A
$$

REGIONAL REPORTS...SASKATCHEWAN

CITY           SKY/WX    TMP DP  RH WIND       PRES   REMARKS
SWIFT CURRENT  MOCLDY    28  28 100 S3        29.73S FOG
REGINA         CLOUDY    28  28 100 NW12      29.77R WCI  18
SASKATOON      PTCLDY    23  21  93 W6        29.78S WCI  16
CYPRESS HILLS    N/A     37  25  60 W7          N/A
ROCKGLEN         N/A     36  28  75 NE5         N/A
ASSINIBOIA       N/A     19  18  93 CALM        N/A
$$



USA.gov is the U.S. government's official web portal to all federal, state and local government web resources and services.